This demonstration page uses our WeatherBlox Daily Observations layout. Learn more.

Left ArrowRight Arrow

39.92423, -83.80882

Hourly Observations for May 3, 2019

Temp ( °F °C ) Dew Point ( °F °C ) Humidity (%) Winds ( mph kmh ) Pressure ( in mb ) Visibility ( mi km ) Precip ( " mm )
12:56 am 00:56 Cloudy 65 18.3 64 17.8 97 97 SSW 7 11 30.04 1017 10 16 N/A
1:56 am 01:56 Clear 63 17.2 63 17.2 100 100 SW 6 9 30.03 1017 10 16 N/A
2:45 am 02:45 Partly Cloudy with Mist and Fog 63 17 63 17 100 100 WSW 3 6 30.00 1016 2 3 N/A
2:51 am 02:51 Mostly Cloudy with Mist and Fog 61 16 61 16 100 100 SW 3 6 30.02 1017 1 1 N/A
2:56 am 02:56 Mostly Cloudy with Mist and Fog 62 16.7 62 16.7 100 100 SW 3 6 30.02 1017 1 2 N/A
3:01 am 03:01 Cloudy with Mist and Fog 63 17 63 17 100 100 N N/A 30.00 1016 3 5 N/A
3:52 am 03:52 Clear with Mist and Fog 61 16 61 16 100 100 WSW 3 6 30.00 1016 1 2 N/A
3:56 am 03:56 Clear with Fog 62 16.7 62 16.7 100 100 SW 3 6 30.00 1016 1 1 N/A
4:39 am 04:39 Mostly Cloudy with Mist and Fog 61 16 61 16 100 100 N N/A 30.00 1016 1 2 N/A
4:49 am 04:49 Cloudy with Fog 61 16 61 16 100 100 N N/A 30.00 1016 1 1 N/A
4:56 am 04:56 Mostly Cloudy with Fog 60 15.6 60 15.6 100 100 N N/A 30.00 1016 1 1 N/A
5:03 am 05:03 Cloudy with Fog 61 16 61 16 100 100 N N/A 30.00 1016 1 1 N/A
5:25 am 05:25 Cloudy with Fog 61 16 61 16 100 100 N N/A 30.00 1016 1 1 N/A
5:35 am 05:35 Cloudy with Mist and Fog 61 16 61 16 100 100 SE 3 6 30.00 1016 1 2 N/A
5:43 am 05:43 Cloudy with Mist and Fog 61 16 61 16 100 100 SSE 3 6 30.00 1016 1 2 N/A
5:48 am 05:48 Cloudy with Mist and Fog 61 16 61 16 100 100 SSE 5 7 30.00 1016 1 2 N/A
5:56 am 05:56 Cloudy with Mist and Fog 61 16.1 61 16.1 100 100 SSE 6 9 30.00 1016 1 1 N/A
6:03 am 06:03 Cloudy with Mist and Fog 63 17 63 17 100 100 SSE 6 9 29.99 1016 1 2 N/A
6:13 am 06:13 Cloudy with Mist and Fog 63 17 63 17 100 100 SSE 5 7 29.99 1016 2 2 N/A
6:22 am 06:22 Cloudy with Light Rain 63 17 63 17 100 100 SSE 6 9 29.99 1016 3 5 N/A
6:33 am 06:33 Cloudy with Rain 63 17 63 17 100 100 S 5 7 29.99 1016 3 5 0.01 0.25
6:41 am 06:41 Cloudy with Light Rain 63 17 63 17 100 100 S 7 11 29.99 1016 5 8 0.02 0.51
6:56 am 06:56 Cloudy with Heavy Rain 62 16.7 62 16.7 100 100 S 6 9 30.01 1016 3 5 0.03 0.76
7:03 am 07:03 Cloudy with Rain 63 17 63 17 100 100 S 5 7 30.00 1016 3 5 0.01 0.25
7:17 am 07:17 Cloudy with Light Rain 63 17 63 17 100 100 S 3 6 30.00 1016 3 5 0.02 0.51
7:43 am 07:43 Cloudy with Rain 63 17 63 17 100 100 N N/A 30.01 1016 3 5 0.05 1.27
7:56 am 07:56 Mostly Cloudy with Heavy Rain 62 16.7 62 16.7 100 100 WSW 5 7 30.02 1017 3 4 0.06 1.52
8:07 am 08:07 Cloudy with Heavy Rain 63 17 63 17 100 100 WNW 10 17 30.02 1017 2 3 0.01 0.25
8:14 am 08:14 Cloudy with Heavy Rain 63 17 63 17 100 100 W 7 11 30.02 1017 3 4 0.02 0.51
8:26 am 08:26 Cloudy with Rain 61 16 61 16 100 100 WNW 3 6 30.03 1017 3 5 0.03 0.76
8:56 am 08:56 Cloudy with Light Rain 60 15.6 60 15.6 100 100 N N/A 30.02 1017 6 10 0.07 1.78
9:56 am 09:56 Cloudy with Light Rain 61 16.1 61 16.1 100 100 N N/A 30.03 1017 10 16 0.08 2.03
10:56 am 10:56 Cloudy with Light Rain 62 16.7 62 16.7 100 100 NE 3 6 30.00 1016 10 16 0.06 1.52
11:56 am 11:56 Cloudy with Light Rain 63 17.2 63 17.2 100 100 SE 8 13 29.99 1016 10 16 0.04 1.02
12:56 pm 12:56 Cloudy with Light Rain 63 17.2 62 16.7 97 97 SE 9 15 29.98 1015 10 16 0.04 1.02
1:56 pm 13:56 Cloudy 65 18.3 61 16.1 87 87 N N/A 29.98 1015 10 16 0.03 0.76
2:13 pm 14:13 Mostly Cloudy 66 19 61 16 83 83 S 3 6 29.96 1014 10 16 0.01 0.25
2:23 pm 14:23 Cloudy 66 19 61 16 83 83 SW 3 6 29.96 1014 10 16 0.01 0.25
2:54 pm 14:54 Cloudy 66 19 61 16 83 83 N N/A 29.94 1014 10 16 0.02 0.51
2:56 pm 14:56 Cloudy 67 19.4 61 16.1 81 81 N N/A 29.95 1014 10 16 0.02 0.51
3:56 pm 15:56 Cloudy 68 20 60 15.6 76 76 N N/A 29.94 1014 10 16 0.03 0.76
4:30 pm 16:30 Cloudy 68 20 61 16 78 78 SSE 6 9 29.91 1013 10 16 0.01 0.25
4:53 pm 16:53 Cloudy 68 20 61 16 78 78 N N/A 29.91 1013 10 16 0.02 0.51
4:56 pm 16:56 Cloudy 68 20 61 16.1 78 78 S 6 9 29.93 1014 10 16 0.02 0.51
5:56 pm 17:56 Cloudy 68 20 60 15.6 76 76 N N/A 29.93 1014 10 16 0.01 0.25
6:56 pm 18:56 Mostly Cloudy 69 20.6 61 16.1 76 76 WNW 5 7 29.93 1014 10 16 0.02 0.51
7:17 pm 19:17 Cloudy 68 20 61 16 78 78 NW 6 9 29.90 1013 10 16 N/A
7:50 pm 19:50 Cloudy 64 18 63 17 94 94 N 13 20 29.92 1013 10 16 0.01 0.25
7:56 pm 19:56 Cloudy 64 17.8 61 16.1 90 90 N 12 19 29.94 1014 10 16 0.01 0.25
8:32 pm 20:32 Cloudy with Mist and Fog 61 16 59 15 94 94 N 12 19 29.94 1014 6 10 N/A
8:56 pm 20:56 Cloudy with Mist and Fog 60 15.6 59 15 96 96 N 8 13 29.96 1014 6 10 N/A
9:56 pm 21:56 Cloudy 59 15 58 14.4 96 96 N 7 11 29.97 1015 7 11 0.01 0.25
10:14 pm 22:14 Cloudy with Mist and Fog 57 14 57 14 100 100 N 8 13 29.98 1015 6 10 N/A
10:56 pm 22:56 Cloudy with Mist and Fog 57 13.9 57 13.9 100 100 N 7 11 29.98 1015 4 6 0.01 0.25
11:56 pm 23:56 Cloudy with Mist and Fog 57 13.9 56 13.3 96 96 NNW 5 7 29.97 1015 5 8 N/A

Powered by AerisWeather